Wisconsin Rapids, WI

7:13 AM CDT on August 23, 2017 (GMT -0500)
Alexander Field South Wood County

Weather History for KISW - March, 2012

Change the Weather History Date:

Sunday, March 4, 2012

  Actual Average Record
Temperature  
Mean Temperature 22 °F -  
Max Temperature 26 °F 36 °F 53 °F (1968)
Min Temperature 18 °F 16 °F -17 °F (2002)
Degree Days  
Heating Degree Days 43    
Moisture  
Dew Point 16 °F    
Average Humidity 78    
Maximum Humidity 93    
Minimum Humidity 63    
Precipitation  
Precipitation 0.07 in - - ()
Sea Level Pressure  
Sea Level Pressure 29.89 in    
Wind  
Wind Speed 5 mph (NE)    
Max Wind Speed 8 mph    
Max Gust Speed -    
Visibility 6 miles    
Events Snow    
Averages and records for this station are not official NWS values.
T = Trace of Precipitation, MM = Missing Value Source: NWS Daily Summary

Daily Weather History Graph

Daily Weather History Graph

Search for Another Location

Airport or City:

Trip Planner

Search our weather history database for the weather conditions in past years. The results will help you decide how hot, cold, wet, or windy it might be!

Date:

Astronomy

Mar. 04, 2012 Rise Set
Actual Time 6:30 AM CST 5:52 PM CST
Civil Twilight 6:01 AM CST 6:21 PM CST
Nautical Twilight 5:27 AM CST 6:54 PM CST
Astronomical Twilight 4:54 AM CST 7:28 PM CST
Moon 1:57 PM CST (3/4) 3:58 AM CST (3/4)
Length of Visible Light 12h 19m
Length of Day
11h 21m
Waxing Gibbous, 84% of the Moon is Illuminated
Mar 4
Waxing Gibbous
Mar 8
Full
Mar 14
Last Quarter
Mar 22
New
Mar 30
First Quarter

Hourly Weather History & Observations

Time (CST) Temp. Windchill Dew Point Humidity Pressure Visibility Wind Dir Wind Speed Gust Speed Precip Events Conditions
12:54 AM 25.0 °F 17.1 °F 21.0 °F 85% 29.82 in 10.0 mi NW 6.9 mph - 0.00 in   Overcast
1:09 AM 24.8 °F 17.9 °F 21.2 °F 86% 29.78 in 5.0 mi NW 5.8 mph - 0.00 in Snow Light Snow
1:40 AM 24.8 °F 17.9 °F 19.4 °F 80% 29.78 in 5.0 mi ENE 5.8 mph - 0.00 in Snow Light Snow
1:54 AM 24.1 °F 17.0 °F 19.0 °F 81% 29.83 in 8.0 mi NE 5.8 mph - 0.00 in Snow Light Snow
2:54 AM 24.1 °F 18.2 °F 19.0 °F 81% 29.83 in 4.0 mi ENE 4.6 mph - 0.00 in Snow Light Snow
3:29 AM 23.0 °F 15.8 °F 19.4 °F 86% 29.79 in 2.0 mi NNE 5.8 mph - 0.00 in Snow Light Snow
3:54 AM 23.0 °F 17.0 °F 19.0 °F 85% 29.84 in 2.5 mi NE 4.6 mph - 0.00 in Snow Light Snow
4:08 AM 23.0 °F - 19.4 °F 86% 29.80 in 1.5 mi Calm Calm - 0.00 in Snow Light Snow
4:24 AM 21.2 °F 14.9 °F 19.4 °F 93% 29.80 in 2.0 mi ENE 4.6 mph - 0.00 in Snow Light Snow
4:35 AM 21.2 °F 14.9 °F 19.4 °F 93% 29.80 in 4.0 mi ENE 4.6 mph - 0.00 in Snow Light Snow
4:54 AM 21.9 °F 15.7 °F 19.0 °F 89% 29.85 in 5.0 mi ENE 4.6 mph - 0.00 in Snow Light Snow
5:16 AM 21.2 °F 11.7 °F 17.6 °F 86% 29.81 in 6.0 mi East 8.1 mph - 0.00 in Snow Light Snow
5:23 AM 21.2 °F 11.7 °F 17.6 °F 86% 29.82 in 5.0 mi ESE 8.1 mph - 0.00 in Snow Light Snow
5:43 AM 19.4 °F 10.4 °F 15.8 °F 86% 29.82 in 4.0 mi ESE 6.9 mph - 0.00 in Snow Light Snow
5:54 AM 19.9 °F 11.1 °F 16.0 °F 85% 29.87 in 3.0 mi East 6.9 mph - 0.00 in Snow Light Snow
7:05 AM 19.4 °F 10.4 °F 14.0 °F 80% 29.84 in 2.5 mi East 6.9 mph - 0.00 in Snow Light Snow
7:09 AM 19.4 °F 10.4 °F 12.2 °F 74% 29.84 in 1.8 mi East 6.9 mph - 0.00 in Snow Light Snow
7:54 AM 18.0 °F 9.8 °F 14.0 °F 84% 29.91 in 1.8 mi East 5.8 mph - 0.00 in Snow Light Snow
8:20 AM 19.4 °F 11.5 °F 14.0 °F 80% 29.86 in 2.5 mi East 5.8 mph - 0.00 in Snow Light Snow
8:32 AM 19.4 °F 14.3 °F 15.8 °F 86% 29.86 in 2.5 mi East 3.5 mph - 0.00 in Snow Light Snow
8:43 AM 19.4 °F 11.5 °F 14.0 °F 80% 29.86 in 2.5 mi ENE 5.8 mph - 0.00 in Snow Light Snow
8:50 AM 19.4 °F 9.5 °F 14.0 °F 80% 29.86 in 3.0 mi ENE 8.1 mph - 0.00 in Snow Light Snow
8:54 AM 19.0 °F 10.0 °F 14.0 °F 81% 29.91 in 4.0 mi ENE 6.9 mph - 0.00 in Snow Light Snow
9:54 AM 19.9 °F 14.9 °F 14.0 °F 78% 29.92 in 10.0 mi ESE 3.5 mph - 0.00 in   Overcast
10:54 AM 21.9 °F - 14.0 °F 72% 29.91 in 6.0 mi Calm Calm - 0.00 in   Haze
11:54 AM 24.1 °F 18.2 °F 16.0 °F 71% 29.92 in 5.0 mi North 4.6 mph - 0.00 in Snow Light Snow
12:11 PM 24.8 °F - 15.8 °F 69% 29.87 in 2.5 mi Calm Calm - 0.00 in Snow Light Snow
12:22 PM 24.8 °F 20.5 °F 17.6 °F 74% 29.86 in 4.0 mi NE 3.5 mph - 0.00 in Snow Light Snow
12:54 PM 24.1 °F - 15.1 °F 69% 29.90 in 10.0 mi Calm Calm - 0.01 in   Overcast
1:54 PM 26.1 °F 21.9 °F 16.0 °F 66% 29.89 in 10.0 mi NNE 3.5 mph - 0.06 in   Overcast
2:54 PM 25.0 °F 20.7 °F 14.0 °F 63% 29.91 in 10.0 mi North 3.5 mph - N/A   Overcast
3:06 PM 26.6 °F 21.2 °F 15.8 °F 64% 29.87 in 10.0 mi North 4.6 mph - N/A   Overcast
3:15 PM 26.6 °F 22.6 °F 15.8 °F 64% 29.87 in 10.0 mi North 3.5 mph - N/A   Overcast
3:54 PM 25.0 °F 17.1 °F 15.1 °F 66% 29.94 in 10.0 mi North 6.9 mph - N/A   Overcast
4:54 PM 24.1 °F 15.2 °F 14.0 °F 65% 29.96 in 10.0 mi North 8.1 mph - N/A   Overcast
5:54 PM 19.9 °F 14.9 °F 10.9 °F 68% 29.99 in 10.0 mi NW 3.5 mph - N/A   Overcast
6:54 PM 19.9 °F - 12.0 °F 71% 30.01 in 10.0 mi Calm Calm - N/A   Overcast
7:54 PM 19.0 °F 13.9 °F 12.0 °F 74% 30.03 in 10.0 mi NW 3.5 mph - N/A   Mostly Cloudy
8:54 PM 21.0 °F 13.4 °F 12.9 °F 71% 30.05 in 10.0 mi NNW 5.8 mph - N/A   Overcast
9:54 PM 21.0 °F 16.2 °F 16.0 °F 81% 30.07 in 10.0 mi NNW 3.5 mph - N/A   Overcast
10:13 PM 21.2 °F 16.4 °F 15.8 °F 80% 30.02 in 10.0 mi North 3.5 mph - N/A   Overcast
10:21 PM 21.2 °F - 15.8 °F 80% 30.02 in 10.0 mi Calm Calm - N/A   Overcast
10:54 PM 19.9 °F - 15.1 °F 81% 30.08 in 10.0 mi Calm Calm - N/A   Overcast
11:54 PM 19.9 °F - 15.1 °F 81% 30.09 in 10.0 mi Calm Calm - N/A   Overcast